カタログに戻る

STARLINK-32640

運用中通信VLEO
NORAD 62198·PAYLOAD·🇺🇸 United States

打ち上げ Dec 4, 2024 から Cape Canaveral Space Force Station

Loading…

次のパス (今後24時間)

TLE

最新Source: CelesTrak SupGP

元期: Sep 14, 2026, 20:42 UTC

1 62198C 24229G   26257.86298611 -.00002105  00000+0 -76274-4 0  2574
2 62198  43.0024 282.1742 0001405 267.2065 148.4375 15.27572601    14

AllMySatでSTARLINK-32640をリアルタイム追跡

Download on the App Store